Location: LDNL
(36.4545°S, 141.6685°E)
Time: 12:12:36
(UTC+10:00)

Vanguard 3 - Pass Details

Date: 02 February 2022
Orbit: 508 x 3258 km, 33.3° (Epoch: 25 May)

Event Time Altitude Azimuth Distance (km) Brightness Sun altitude
Rises 23:39:59 0° 297° (WNW) 3,148 10.3 -28.9°
Reaches altitude 10° 23:41:58 10° 301° (WNW) 2,425 9.6 -29.2°
Enters shadow 23:43:17 19° 306° (NW) 1,990 9.1 -29.3°
Maximum altitude 23:47:34 58° 19° (NNE) 1,334 - -29.8°
Drops below altitude 10° 23:57:31 10° 94° (E) 4,198 - -30.9°
Exits shadow 23:58:29 - 95° (E) 4,523 10.7 -31.0°
Sets 00:02:01 0° 96° (E) 5,667 11.3 -31.3°
